Overview Statistics Trail Chart Weather Telemetry Raw packets
 

This is the latest recevied weather packets stored in our database for station/object W4UWO. If no packets are shown the sender has not sent any weather packets the latest 10 day(s).

<< 71 72 73 74 75 76 77 >>
Time Temp. Humidity Pressure Rain* Wind** Luminosity Snow
1788113653 33.89° C 50% 1020.9 hPa 0 mm - 917 W/m² -
1788113347 33.89° C 47% 1020.9 hPa 0 mm - 400 W/m² -
1788113046 33.89° C 47% 1021 hPa 0 mm - 932 W/m² -
1788112746 33.89° C 50% 1021 hPa 0 mm - 909 W/m² -
1788112446 33.89° C 52% 1021.1 hPa 0 mm - 940 W/m² -
1788112141 33.89° C 51% 1021 hPa 0 mm - 731 W/m² -
1788111836 33.89° C 50% 1020.9 hPa 0 mm - 931 W/m² -
1788111531 33.89° C 49% 1021 hPa 0 mm - 888 W/m² -
1788111226 33.33° C 52% 1021.1 hPa 0 mm - 230 W/m² -
1788110923 33.89° C 51% 1021.2 hPa 0 mm - 887 W/m² -
1788110619 32.78° C 55% 1021.3 hPa 0 mm - 926 W/m² -
1788110314 32.78° C 53% 1021.5 hPa 0 mm - 876 W/m² -
1788110010 32.78° C 54% 1021.5 hPa 0 mm - 869 W/m² -
1788109705 32.78° C 54% 1021.5 hPa 0 mm - 879 W/m² -
1788109404 33.33° C 55% 1021.6 hPa 0 mm - 883 W/m² -
1788109103 32.78° C 55% 1021.6 hPa 0 mm - 889 W/m² -
1788108799 32.78° C 56% 1021.7 hPa 0 mm - 874 W/m² -
1788108495 32.78° C 56% 1021.7 hPa 0 mm - 856 W/m² -
1788108191 32.78° C 57% 1021.7 hPa 0 mm - 839 W/m² -
1788107888 31.67° C 60% 1022 hPa 0 mm - 875 W/m² -
1788107583 31.67° C 60% 1021.9 hPa 0 mm - 859 W/m² -
1788107277 31.11° C 61% 1021.9 hPa 0 mm - 251 W/m² -
1788106974 31.67° C 60% 1021.8 hPa 0 mm - 455 W/m² -
1788106669 32.22° C 58% 1021.7 hPa 0 mm - 797 W/m² -
1788106368 32.22° C 59% 1022.1 hPa 0 mm - 803 W/m² -

* Rain latest hour (hover to see other rain measurements)
** Current wind speed in m/s (hover to see current wind gust speed)